DLH125 EGLL-EHAM

Flight info

Callsign DLH125
Flight time 0h 41m
Altitude 27000
Route BPK Q295 BRAIN M197 REDFA
Aircraft A346/H-SDE2E3FGHIJ3J4J5M1RWXY/LB1D1

Departure

Time 2026-05-07 14:33
Airport London Heathrow Airport (EGLL)

Arrival

Time 2026-05-07 15:14
Airport Amsterdam Airport Schiphol (EHAM)
Time Latitude Longitude Altitude Speed Heading
2026-05-07 14:33 51.53666 -0.23924 5826 ft 274 kts 73°
2026-05-07 14:33 51.54251 -0.21004 5998 ft 275 kts 68°
2026-05-07 14:33 51.55349 -0.18534 5978 ft 274 kts 37°
2026-05-07 14:33 51.57065 -0.17302 6015 ft 273 kts
2026-05-07 14:34 51.58962 -0.17219 6031 ft 273 kts 359°
2026-05-07 14:34 51.60843 -0.16827 6025 ft 274 kts 11°
2026-05-07 14:34 51.62706 -0.16159 6025 ft 275 kts 12°
2026-05-07 14:34 51.64558 -0.15407 6024 ft 275 kts 14°
2026-05-07 14:35 51.66400 -0.14601 6023 ft 275 kts 14°
2026-05-07 14:35 51.68243 -0.13766 6022 ft 275 kts 15°
2026-05-07 14:35 51.70106 -0.12910 6027 ft 275 kts 15°
2026-05-07 14:35 51.71943 -0.12062 6021 ft 275 kts 15°
2026-05-07 14:36 51.73726 -0.10960 5994 ft 275 kts 34°
2026-05-07 14:36 51.75000 -0.08694 6026 ft 280 kts 64°
2026-05-07 14:36 51.75479 -0.05606 6672 ft 287 kts 84°
2026-05-07 14:36 51.75710 -0.02404 7974 ft 280 kts 84°
2026-05-07 14:37 51.75943 0.00720 9115 ft 281 kts 84°
2026-05-07 14:37 51.76450 0.07143 10849 ft 299 kts 84°
2026-05-07 14:37 51.76727 0.10576 11430 ft 317 kts 84°
2026-05-07 14:38 51.77024 0.14208 11963 ft 335 kts 84°
2026-05-07 14:38 51.77337 0.18050 12491 ft 354 kts 84°
2026-05-07 14:38 51.77667 0.22097 13009 ft 371 kts 84°
2026-05-07 14:38 51.78007 0.26278 13815 ft 378 kts 84°
2026-05-07 14:39 51.78351 0.30523 14706 ft 382 kts 84°
2026-05-07 14:39 51.78695 0.34806 15536 ft 387 kts 84°
2026-05-07 14:39 51.79044 0.39164 16302 ft 394 kts 84°
2026-05-07 14:39 51.79397 0.43595 17107 ft 400 kts 84°
2026-05-07 14:40 51.79754 0.48092 17895 ft 406 kts 84°
2026-05-07 14:40 51.80114 0.52654 18662 ft 411 kts 84°
2026-05-07 14:40 51.80475 0.57255 19408 ft 414 kts 84°
2026-05-07 14:40 51.80847 0.61905 20135 ft 419 kts 83°
2026-05-07 14:41 51.81343 0.66567 20873 ft 423 kts 79°
2026-05-07 14:41 51.82005 0.71233 21604 ft 428 kts 77°
2026-05-07 14:41 51.82730 0.75927 22308 ft 432 kts 76°
2026-05-07 14:41 51.83476 0.80668 23021 ft 437 kts 76°
2026-05-07 14:42 51.84324 0.85493 23701 ft 442 kts 74°
2026-05-07 14:42 51.85197 0.90281 24272 ft 446 kts 74°
2026-05-07 14:42 51.86087 0.95140 24879 ft 449 kts 74°
2026-05-07 14:42 51.86977 1.00013 25492 ft 452 kts 74°
2026-05-07 14:43 51.87870 1.04922 26077 ft 456 kts 74°
2026-05-07 14:43 51.88765 1.09868 26666 ft 459 kts 74°
2026-05-07 14:43 51.89664 1.14846 27027 ft 462 kts 75°
2026-05-07 14:43 51.90562 1.19843 27079 ft 461 kts 74°
2026-05-07 14:44 51.91458 1.24833 27082 ft 461 kts 75°
2026-05-07 14:44 51.92351 1.29828 27084 ft 461 kts 75°
2026-05-07 14:44 51.93243 1.34826 27087 ft 461 kts 75°
2026-05-07 14:44 51.94130 1.39815 27086 ft 461 kts 75°
2026-05-07 14:45 51.95018 1.44814 27092 ft 461 kts 75°
2026-05-07 14:45 51.95902 1.49819 27087 ft 460 kts 75°
2026-05-07 14:45 51.96780 1.54798 27088 ft 460 kts 75°
2026-05-07 14:45 51.97659 1.59799 27091 ft 459 kts 75°
2026-05-07 14:46 51.98533 1.64788 27095 ft 459 kts 75°
2026-05-07 14:46 51.99397 1.69777 27094 ft 459 kts 75°
2026-05-07 14:46 52.00200 1.74799 27095 ft 459 kts 76°
2026-05-07 14:46 52.00976 1.79831 27095 ft 459 kts 76°
2026-05-07 14:47 52.01758 1.84937 27095 ft 459 kts 76°
2026-05-07 14:47 52.02524 1.89939 26913 ft 452 kts 76°
2026-05-07 14:47 52.03025 1.93203 26516 ft 450 kts 76°
2026-05-07 14:47 52.03784 1.98148 25872 ft 450 kts 77°
2026-05-07 14:48 52.04537 2.03063 25344 ft 446 kts 76°
2026-05-07 14:48 52.05285 2.07956 24807 ft 443 kts 76°
2026-05-07 14:48 52.06026 2.12806 24271 ft 441 kts 76°
2026-05-07 14:48 52.06761 2.17633 23747 ft 438 kts 76°
2026-05-07 14:49 52.07490 2.22430 23140 ft 436 kts 76°
2026-05-07 14:49 52.08212 2.27203 22568 ft 432 kts 77°
2026-05-07 14:49 52.08926 2.31934 22023 ft 428 kts 77°
2026-05-07 14:49 52.09631 2.36626 21483 ft 425 kts 77°
2026-05-07 14:50 52.10329 2.41281 20950 ft 422 kts 77°
2026-05-07 14:50 52.11265 2.46588 20328 ft 418 kts 71°
2026-05-07 14:50 52.12369 2.51024 19784 ft 415 kts 65°
2026-05-07 14:50 52.13709 2.55172 19288 ft 411 kts 60°
2026-05-07 14:51 52.15149 2.59180 18773 ft 409 kts 59°
2026-05-07 14:51 52.16600 2.63141 18293 ft 405 kts 59°
2026-05-07 14:51 52.18042 2.67081 17693 ft 403 kts 59°
2026-05-07 14:51 52.19465 2.70991 17191 ft 399 kts 59°
2026-05-07 14:52 52.20874 2.74882 16643 ft 396 kts 59°
2026-05-07 14:52 52.22270 2.78749 16149 ft 393 kts 59°
2026-05-07 14:52 52.23647 2.82576 15654 ft 390 kts 59°
2026-05-07 14:52 52.24929 2.86142 15191 ft 387 kts 59°
2026-05-07 14:53 52.26281 2.89913 14734 ft 383 kts 59°
2026-05-07 14:53 52.27621 2.93657 14240 ft 381 kts 59°
2026-05-07 14:53 52.28952 2.97383 13765 ft 377 kts 59°
2026-05-07 14:53 52.30265 3.01064 13232 ft 375 kts 60°
2026-05-07 14:54 52.31573 3.04734 12722 ft 371 kts 60°
2026-05-07 14:54 52.32868 3.08371 12192 ft 369 kts 60°
2026-05-07 14:54 52.34154 3.11992 11686 ft 366 kts 60°
2026-05-07 14:54 52.35427 3.15577 11185 ft 363 kts 60°
2026-05-07 14:55 52.36694 3.19157 10674 ft 361 kts 60°
2026-05-07 14:55 52.37940 3.22676 10433 ft 351 kts 60°
2026-05-07 14:55 52.39146 3.26087 10235 ft 340 kts 60°
2026-05-07 14:55 52.40327 3.29439 10044 ft 330 kts 60°
2026-05-07 14:56 52.41459 3.32649 9841 ft 320 kts 61°
2026-05-07 14:56 52.42552 3.35755 9653 ft 310 kts 60°
2026-05-07 14:56 52.43596 3.38785 9454 ft 301 kts 63°
2026-05-07 14:56 52.44472 3.41848 9279 ft 292 kts 69°
2026-05-07 14:57 52.45154 3.44947 9019 ft 286 kts 74°
2026-05-07 14:57 52.45665 3.48075 8653 ft 284 kts 78°
2026-05-07 14:57 52.46115 3.51228 8266 ft 283 kts 78°
2026-05-07 14:57 52.46558 3.54375 7934 ft 281 kts 78°
2026-05-07 14:58 52.47002 3.57482 7607 ft 279 kts 79°
2026-05-07 14:58 52.47442 3.60589 7256 ft 278 kts 78°
2026-05-07 14:58 52.47877 3.63663 7106 ft 277 kts 78°
2026-05-07 14:58 52.48318 3.66759 7106 ft 278 kts 78°
2026-05-07 14:59 52.48758 3.69854 7107 ft 279 kts 78°
2026-05-07 14:59 52.49197 3.72957 7105 ft 278 kts 78°
2026-05-07 14:59 52.49636 3.76054 7104 ft 278 kts 78°
2026-05-07 14:59 52.50075 3.79154 7101 ft 279 kts 78°
2026-05-07 15:00 52.50510 3.82254 7105 ft 278 kts 78°
2026-05-07 15:00 52.50946 3.85353 7106 ft 278 kts 78°
2026-05-07 15:00 52.51381 3.88450 7104 ft 279 kts 78°
2026-05-07 15:00 52.51816 3.91551 7105 ft 279 kts 78°
2026-05-07 15:01 52.52230 3.94667 7100 ft 278 kts 84°
2026-05-07 15:01 52.52235 3.97863 7086 ft 275 kts 105°
2026-05-07 15:01 52.51429 4.00642 7092 ft 270 kts 132°
2026-05-07 15:01 52.49938 4.02464 7100 ft 269 kts 155°
2026-05-07 15:02 52.48203 4.03611 7105 ft 269 kts 161°
2026-05-07 15:02 52.46444 4.04618 6902 ft 268 kts 162°
2026-05-07 15:02 52.44680 4.05590 6650 ft 266 kts 162°
2026-05-07 15:02 52.42930 4.06533 6407 ft 263 kts 162°
2026-05-07 15:03 52.41201 4.07463 6129 ft 260 kts 162°
2026-05-07 15:03 52.39477 4.08386 5855 ft 263 kts 162°
2026-05-07 15:03 52.37749 4.09365 5577 ft 263 kts 154°
2026-05-07 15:03 52.36346 4.11245 5313 ft 264 kts 131°
2026-05-07 15:04 52.35208 4.13610 5112 ft 264 kts 127°
2026-05-07 15:04 52.34480 4.15198 5102 ft 264 kts 127°
2026-05-07 15:04 52.33270 4.17472 5077 ft 265 kts 143°
2026-05-07 15:04 52.31582 4.18694 5082 ft 265 kts 171°
2026-05-07 15:05 52.29742 4.18861 5093 ft 265 kts 180°
2026-05-07 15:05 52.27900 4.18791 5084 ft 265 kts 182°
2026-05-07 15:05 52.26055 4.18679 4838 ft 265 kts 182°
2026-05-07 15:05 52.24217 4.18559 4576 ft 264 kts 182°
2026-05-07 15:06 52.22380 4.18429 4314 ft 264 kts 182°
2026-05-07 15:06 52.20545 4.18287 4053 ft 264 kts 182°
2026-05-07 15:06 52.18717 4.18130 3794 ft 262 kts 182°
2026-05-07 15:06 52.16919 4.18260 3511 ft 258 kts 162°
2026-05-07 15:07 52.15388 4.19688 3254 ft 255 kts 132°
2026-05-07 15:07 52.14517 4.22157 2990 ft 254 kts 103°
2026-05-07 15:07 52.14452 4.25000 2741 ft 251 kts 81°
2026-05-07 15:07 52.15069 4.27632 2478 ft 250 kts 62°
2026-05-07 15:08 52.15881 4.30141 2214 ft 250 kts 62°
2026-05-07 15:08 52.16673 4.32645 2017 ft 245 kts 62°
2026-05-07 15:08 52.17430 4.35081 1876 ft 237 kts 62°
2026-05-07 15:08 52.18147 4.37417 1898 ft 221 kts 62°
2026-05-07 15:09 52.18807 4.39577 1950 ft 209 kts 62°
2026-05-07 15:09 52.19444 4.41656 1980 ft 199 kts 63°
2026-05-07 15:09 52.20060 4.43669 1981 ft 199 kts 63°
2026-05-07 15:09 52.20638 4.45749 1992 ft 198 kts 72°
2026-05-07 15:10 52.20865 4.47964 1994 ft 198 kts 87°
2026-05-07 15:10 52.20855 4.50216 2005 ft 199 kts 90°
2026-05-07 15:10 52.20878 4.52465 1987 ft 198 kts 76°
2026-05-07 15:10 52.21439 4.54513 2018 ft 198 kts 59°
2026-05-07 15:11 52.22175 4.56408 2001 ft 197 kts 57°
2026-05-07 15:11 52.22899 4.58232 2004 ft 183 kts 57°
2026-05-07 15:11 52.23553 4.59896 1975 ft 171 kts 57°
2026-05-07 15:11 52.24176 4.61493 1739 ft 161 kts 57°
2026-05-07 15:12 52.24751 4.62978 1500 ft 149 kts 56°
2026-05-07 15:12 52.25302 4.64404 1349 ft 148 kts 56°
2026-05-07 15:12 52.25847 4.65820 1144 ft 147 kts 55°
2026-05-07 15:12 52.26397 4.67228 966 ft 146 kts 56°
2026-05-07 15:13 52.26937 4.68630 775 ft 146 kts 56°
2026-05-07 15:13 52.27478 4.70036 577 ft 146 kts 55°
2026-05-07 15:13 52.28023 4.71449 333 ft 145 kts 55°
2026-05-07 15:13 52.28558 4.72830 130 ft 143 kts 54°
2026-05-07 15:14 52.29088 4.74178 28 ft 126 kts 57°
2026-05-07 15:14 52.29443 4.75101 22 ft 64 kts 59°
2026-05-07 15:14 52.29539 4.75359 24 ft 0 kts 58°
2026-05-07 15:15 52.29555 4.75402 25 ft 8 kts 58°
2026-05-07 15:15 52.29600 4.75518 29 ft 16 kts 58°
2026-05-07 15:15 52.29679 4.75689 24 ft 19 kts 39°
2026-05-07 15:15 52.29780 4.75800 27 ft 17 kts 28°
2026-05-07 15:16 52.29907 4.75909 20 ft 17 kts 27°
2026-05-07 15:16 52.30015 4.76049 21 ft 23 kts 53°
2026-05-07 15:16 52.30092 4.76247 23 ft 21 kts 58°
2026-05-07 15:16 52.30181 4.76484 23 ft 28 kts 58°
2026-05-07 15:17 52.30299 4.76710 19 ft 24 kts
2026-05-07 15:17 52.30397 4.76750 17 ft 12 kts 353°
2026-05-07 15:17 52.30440 4.76726 17 ft 0 kts 337°
2026-05-07 15:17 52.30441 4.76726 17 ft 0 kts 337°